Hourly Data Report for May 19, 2018

DRYDEN REGIONAL
ONTARIO
Current Station Operator: NAVCAN

49°49'39.000" N
92°44'39.000" W
412.70 m
6032125
71527
YHD

Download Data

Hourly Data (May 2018)
Hourly Data Report for May 19, 2018
TIME
LST
Temp Definition
°C
Dew Point Definition
°C
Rel Hum Definition
%
Precip. Amount Definition
mm

Wind Dir Definition
10's deg

Wind Spd Definition
km/h
Visibility Definition
km
Stn Press Definition
kPa
Hmdx Definition


Wind Chill Definition


Weather Definition


00:00 4.3 3.9 97 1.8 1 15 16.1 96.85     Rain
01:00 3.7 3.3 97 0.8 3 24 16.1 96.82     LegendNANA
02:00 3.6 3.2 97 0.0 2 18 16.1 96.85     Rain
03:00 3.5 3.1 97 0.0 2 18 16.1 96.95     LegendNANA
04:00 3.2 2.9 98 0.0 2 15 16.1 97.05     LegendNANA
05:00 3.1 2.7 97 0.0 2 17 16.1 97.10     LegendNANA
06:00 3.1 2.5 96 0.0 3 28 16.1 97.13     LegendNANA
07:00 3.2 2.5 95 0.0 3 18 16.1 97.18     LegendNANA
08:00 4.2 2.7 90 0.0 4 24 16.1 97.26     LegendNANA
09:00 5.5 2.8 83 0.0 4 21 16.1 97.30     LegendNANA
10:00 8.5 3.6 71 0.0 4 18 16.1 97.32     LegendNANA
11:00 10.4 3.9 64 0.0 2 15 16.1 97.37     LegendNANA
12:00 11.4 3.6 59 0.0 5 17 16.1 97.34     LegendNANA
13:00 13.0 1.3 45 0.0 3 15 16.1 97.33     LegendNANA
14:00 13.7 1.3 43 0.0 5 21 16.1 97.27     LegendNANA
15:00 14.8 1.1 39 0.0 4 15 16.1 97.23     LegendNANA
16:00 15.2 -0.2 35 0.0 2 15 16.1 97.22     LegendNANA
17:00 15.2 -0.4 34 0.0 4 11 16.1 97.21     LegendNANA
18:00 14.6 -0.5 35 0.0 LegendMM 4 16.1 97.20     LegendNANA
19:00 14.2 0.1 38 0.0   0 14.5 97.20     LegendNANA
20:00 12.0 1.2 47 0.0 18 13 16.1 97.19     LegendNANA
21:00 9.6 2.0 59 0.0 20 13 16.1 97.23     LegendNANA
22:00 8.9 2.3 63 0.0 20 15 16.1 97.22     LegendNANA
23:00 7.8 2.1 67 0.0 20 13 16.1 97.24     LegendNANA

Notes on Data Quality.

Legend

  • E = Estimated
  • M = Missing
  • NA = Not Available*
  • [empty] = Indicates an unobserved value
Date modified: